,,Stat6,,Stat2,,Stat8,,Stat9,,Stat10,,Wind1,,Wind1,
time,status,PA1M_AVG,status,PR1M_SUM,status,RH1M_AVG,status,SR1M_AVG,status,TA1M_AVG,status,W1dAve1m,status,W1sAve1m,
2007-03-29, 00:00:00,VALID,918.629,VALID,0,VALID,100,VALID,-0.101885,VALID,20.6944,VALID,42,VALID,0.690104,
2007-03-29, 00:01:00,VALID,918.619,VALID,0,VALID,100,VALID,-0.0849042,VALID,20.7106,VALID,21,VALID,0.647905,
2007-03-29, 00:02:00,VALID,918.612,VALID,0,VALID,100,VALID,-0.101885,VALID,20.6779,VALID,7,VALID,0.143973,
2007-03-29, 00:03:00,VALID,918.609,VALID,0,VALID,100,VALID,-0.0679233,VALID,20.6782,VALID,8,VALID,0.422049,
2007-03-29, 00:04:00,VALID,918.601,VALID,0,VALID,100,VALID,-0.0849042,VALID,20.7174,VALID,9,VALID,0.482812,
2007-03-29, 00:05:00,VALID,918.589,VALID,0,VALID,100,VALID,-0.0849042,VALID,20.7333,VALID,9,VALID,0.37035,
2007-03-29, 00:06:00,VALID,918.595,VALID,0,VALID,100,VALID,-0.0849042,VALID,20.7101,VALID,19,VALID,0.794513,
2007-03-29, 00:07:00,VALID,918.592,VALID,0,VALID,100,VALID,-0.0849042,VALID,20.7204,VALID,31,VALID,0.741443,
2007-03-29, 00:08:00,VALID,918.582,VALID,0,VALID,100,VALID,-0.0849042,VALID,20.6741,VALID,352,VALID,0.783346,
2007-03-29, 00:09:00,VALID,918.577,VALID,0,VALID,100,VALID,-0.0509425,VALID,20.6354,VALID,30,VALID,0.478561,
2007-03-29, 00:10:00,VALID,918.576,VALID,0,VALID,100,VALID,-0.0849042,VALID,20.6525,VALID,46,VALID,0.447173,
2007-03-29, 00:11:00,VALID,918.579,VALID,0,VALID,100,VALID,-0.101885,VALID,20.6065,VALID,46,VALID,0.46147,
2007-03-29, 00:12:00,VALID,918.575,VALID,0,VALID,100,VALID,-0.101885,VALID,20.5613,VALID,46,VALID,0.588299,
2007-03-29, 00:13:00,VALID,918.583,VALID,0,VALID,100,VALID,-0.101885,VALID,20.5091,VALID,41,VALID,0.603423,
2007-03-29, 00:14:00,VALID,918.601,VALID,0,VALID,100,VALID,-0.101885,VALID,20.5221,VALID,36,VALID,0.499818,
2007-03-29, 00:15:00,VALID,918.61,VALID,0,VALID,100,VALID,-0.101885,VALID,20.5583,VALID,36,VALID,0.533794,
2007-03-29, 00:16:00,VALID,918.606,VALID,0,VALID,100,VALID,-0.0849042,VALID,20.4834,VALID,25,VALID,1.02663,
2007-03-29, 00:17:00,VALID,918.6,VALID,0,VALID,100,VALID,-0.101885,VALID,20.4704,VALID,35,VALID,0.911776,
2007-03-29, 00:18:00,VALID,918.573,VALID,0,VALID,100,VALID,-0.101885,VALID,20.4802,VALID,32,VALID,0.99814,
2007-03-29, 00:19:00,VALID,918.553,VALID,0,VALID,100,VALID,-0.0849042,VALID,20.4539,VALID,28,VALID,1.15829,
2007-03-29, 00:20:00,VALID,918.542,VALID,0,VALID,100,VALID,-0.0849042,VALID,20.4537,VALID,22,VALID,1.09468,
2007-03-29, 00:21:00,VALID,918.542,VALID,0,VALID,100,VALID,-0.101885,VALID,20.4609,VALID,17,VALID,0.916606,
2007-03-29, 00:22:00,VALID,918.542,VALID,0,VALID,100,VALID,-0.118866,VALID,20.4609,VALID,7,VALID,0.859375,
2007-03-29, 00:23:00,VALID,918.544,VALID,0,VALID,100,VALID,-0.101885,VALID,20.4382,VALID,2,VALID,0.850632,
2007-03-29, 00:24:00,VALID,918.548,VALID,0,VALID,100,VALID,-0.101885,VALID,20.4053,VALID,348,VALID,0.974848,
2007-03-29, 00:25:00,VALID,918.544,VALID,0,VALID,100,VALID,-0.0849042,VALID,20.3925,VALID,343,VALID,1.03544,
2007-03-29, 00:26:00,VALID,918.54,VALID,0,VALID,100,VALID,-0.118866,VALID,20.3855,VALID,8,VALID,0.625727,
2007-03-29, 00:27:00,VALID,918.511,VALID,0,VALID,100,VALID,-0.101885,VALID,20.3958,VALID,351,VALID,0.792597,
2007-03-29, 00:28:00,VALID,918.505,VALID,0,VALID,100,VALID,-0.101885,VALID,20.402,VALID,342,VALID,0.536701,
2007-03-29, 00:29:00,VALID,918.497,VALID,0,VALID,100,VALID,-0.101885,VALID,20.4182,VALID,326,VALID,0.674183,
2007-03-29, 00:30:00,VALID,918.499,VALID,0,VALID,100,VALID,-0.0679233,VALID,20.4439,VALID,329,VALID,0.726953,
2007-03-29, 00:31:00,VALID,918.492,VALID,0,VALID,100,VALID,-0.0509425,VALID,20.4342,VALID,351,VALID,0.625,
2007-03-29, 00:32:00,VALID,918.472,VALID,0,VALID,100,VALID,-0.101885,VALID,20.4539,VALID,27,VALID,1.05278,
2007-03-29, 00:33:00,VALID,918.458,VALID,0,VALID,100,VALID,-0.101885,VALID,20.4475,VALID,17,VALID,1.14882,
2007-03-29, 00:34:00,VALID,918.446,VALID,0,VALID,100,VALID,-0.0679233,VALID,20.4345,VALID,347,VALID,0.635174,
2007-03-29, 00:35:00,VALID,918.437,VALID,0,VALID,100,VALID,-0.0849042,VALID,20.4504,VALID,5,VALID,0.41282,
2007-03-29, 00:36:00,VALID,918.446,VALID,0,VALID,100,VALID,-0.0509425,VALID,20.4709,VALID,26,VALID,0.444931,
2007-03-29, 00:37:00,VALID,918.421,VALID,0,VALID,100,VALID,-0.0849042,VALID,20.4569,VALID,357,VALID,0.947409,
2007-03-29, 00:38:00,VALID,918.405,VALID,0,VALID,100,VALID,-0.0509425,VALID,20.431,VALID,344,VALID,0.526101,
2007-03-29, 00:39:00,VALID,918.395,VALID,0,VALID,100,VALID,-0.0849042,VALID,20.4769,VALID,354,VALID,0.539608,
2007-03-29, 00:40:00,VALID,918.356,VALID,0,VALID,100,VALID,-0.101885,VALID,20.4672,VALID,6,VALID,0.923549,
2007-03-29, 00:41:00,VALID,918.365,VALID,0,VALID,100,VALID,-0.0679233,VALID,20.4702,VALID,18,VALID,0.705983,
2007-03-29, 00:42:00,VALID,918.364,VALID,0,VALID,100,VALID,-0.0849042,VALID,20.4796,VALID,16,VALID,0.847842,
2007-03-29, 00:43:00,VALID,918.355,VALID,0,VALID,100,VALID,-0.0509425,VALID,20.4764,VALID,24,VALID,0.811955,
2007-03-29, 00:44:00,VALID,918.351,VALID,0,VALID,100,VALID,-0.0169808,VALID,20.4654,VALID,26,VALID,0.490885,
2007-03-29, 00:45:00,VALID,918.359,VALID,0,VALID,100,VALID,0.0169808,VALID,20.4751,VALID,26,VALID,0.562674,
2007-03-29, 00:46:00,VALID,918.342,VALID,0,VALID,100,VALID,0.0169808,VALID,20.4921,VALID,26,VALID,0.626389,
2007-03-29, 00:47:00,VALID,918.329,VALID,0,VALID,100,VALID,0.0169808,VALID,20.5046,VALID,26,VALID,0.499619,
2007-03-29, 00:48:00,VALID,918.309,VALID,0,VALID,100,VALID,0,VALID,20.5303,VALID,27,VALID,0.60831,
2007-03-29, 00:49:00,VALID,918.281,VALID,0,VALID,100,VALID,0.0339617,VALID,20.5595,VALID,40,VALID,0.888081,
2007-03-29, 00:50:00,VALID,918.262,VALID,0,VALID,100,VALID,0,VALID,20.579,VALID,33,VALID,0.822173,
2007-03-29, 00:51:00,VALID,918.224,VALID,0,VALID,100,VALID,0,VALID,20.5862,VALID,33,VALID,0.854469,
2007-03-29, 00:52:00,VALID,918.228,VALID,0,VALID,99.9491,VALID,0,VALID,20.5665,VALID,33,VALID,0.866824,
2007-03-29, 00:53:00,VALID,918.218,VALID,0,VALID,99.9062,VALID,-0.0339617,VALID,20.5568,VALID,32,VALID,0.844444,
2007-03-29, 00:54:00,VALID,918.211,VALID,0,VALID,99.8693,VALID,0,VALID,20.553,VALID,17,VALID,0.841797,
2007-03-29, 00:55:00,VALID,918.199,VALID,0,VALID,99.6582,VALID,-0.0169808,VALID,20.5335,VALID,6,VALID,0.765807,
2007-03-29, 00:56:00,VALID,918.182,VALID,0,VALID,99.6353,VALID,-0.0339617,VALID,20.537,VALID,11,VALID,0.904102,
2007-03-29, 00:57:00,VALID,918.174,VALID,0,VALID,99.5476,VALID,0,VALID,20.5403,VALID,18,VALID,0.979353,
2007-03-29, 00:58:00,VALID,918.166,VALID,0,VALID,99.5323,VALID,-0.0169808,VALID,20.5403,VALID,24,VALID,0.866616,
2007-03-29, 00:59:00,VALID,918.165,VALID,0,VALID,99.5361,VALID,-0.0679233,VALID,20.5481,VALID,20,VALID,0.633507,
2007-03-29, 01:00:00,VALID,918.154,VALID,0,VALID,99.4293,VALID,-0.101885,VALID,20.5421,VALID,11,VALID,0.613186,
2007-03-29, 01:01:00,VALID,918.161,VALID,0,VALID,99.4318,VALID,-0.0849042,VALID,20.5321,VALID,10,VALID,0.5625,
2007-03-29, 01:02:00,VALID,918.139,VALID,0,VALID,99.4229,VALID,-0.101885,VALID,20.5416,VALID,10,VALID,0.374479,
2007-03-29, 01:03:00,VALID,918.123,VALID,0,VALID,99.5272,VALID,-0.0849042,VALID,20.5478,VALID,10,VALID,0.254794,
2007-03-29, 01:04:00,VALID,918.102,VALID,0,VALID,99.5768,VALID,-0.101885,VALID,20.5618,VALID,10,VALID,0.0516827,
2007-03-29, 01:05:00,VALID,918.079,VALID,0,VALID,99.6328,VALID,-0.101885,VALID,20.5681,VALID,10,VALID,0.0637153,
2007-03-29, 01:06:00,VALID,918.075,VALID,0,VALID,99.6099,VALID,-0.0849042,VALID,20.5713,VALID,10,VALID,0,
2007-03-29, 01:07:00,VALID,918.066,VALID,0,VALID,99.7815,VALID,-0.118866,VALID,20.5973,VALID,10,VALID,0,
2007-03-29, 01:08:00,VALID,918.057,VALID,0,VALID,99.7803,VALID,-0.0849042,VALID,20.5938,VALID,10,VALID,0,
2007-03-29, 01:09:00,VALID,918.045,VALID,0,VALID,99.7765,VALID,-0.101885,VALID,20.5903,VALID,10,VALID,0.125888,
2007-03-29, 01:10:00,VALID,918.014,VALID,0,VALID,99.6976,VALID,-0.0849042,VALID,20.5805,VALID,22,VALID,0.240091,
2007-03-29, 01:11:00,VALID,918,VALID,0,VALID,99.5603,VALID,-0.0679233,VALID,20.5413,VALID,86,VALID,0.442116,
2007-03-29, 01:12:00,VALID,918.003,VALID,0,VALID,99.4929,VALID,-0.0509425,VALID,20.4991,VALID,86,VALID,0.17294,
2007-03-29, 01:13:00,VALID,918.007,VALID,0,VALID,99.648,VALID,-0.0849042,VALID,20.5021,VALID,86,VALID,0.239524,
2007-03-29, 01:14:00,VALID,918.002,VALID,0,VALID,99.7777,VALID,-0.101885,VALID,20.5446,VALID,86,VALID,0.290278,
2007-03-29, 01:15:00,VALID,917.992,VALID,0,VALID,99.5145,VALID,-0.0849042,VALID,20.5511,VALID,86,VALID,0.378196,
2007-03-29, 01:16:00,VALID,917.99,VALID,0,VALID,99.4891,VALID,-0.0679233,VALID,20.5511,VALID,86,VALID,0.291371,
2007-03-29, 01:17:00,VALID,917.995,VALID,0,VALID,99.5565,VALID,-0.101885,VALID,20.5678,VALID,86,VALID,0.208394,
2007-03-29, 01:18:00,VALID,918.01,VALID,0,VALID,99.6684,VALID,-0.0849042,VALID,20.587,VALID,86,VALID,0.0259811,
2007-03-29, 01:19:00,VALID,918.022,VALID,0,VALID,99.7714,VALID,-0.0509425,VALID,20.5995,VALID,86,VALID,0.0012429,
2007-03-29, 01:20:00,VALID,918.01,VALID,0,VALID,99.9301,VALID,-0.101885,VALID,20.6067,VALID,86,VALID,0,
2007-03-29, 01:21:00,VALID,917.997,VALID,0,VALID,100,VALID,-0.0679233,VALID,20.6138,VALID,86,VALID,0,
2007-03-29, 01:22:00,VALID,917.976,VALID,0,VALID,100,VALID,-0.0849042,VALID,20.603,VALID,86,VALID,0,
2007-03-29, 01:23:00,VALID,917.967,VALID,0,VALID,99.8688,VALID,-0.0849042,VALID,20.5673,VALID,86,VALID,0.231831,
2007-03-29, 01:24:00,VALID,917.981,VALID,0,VALID,99.5285,VALID,-0.101885,VALID,20.5029,VALID,86,VALID,0.209121,
2007-03-29, 01:25:00,VALID,917.995,VALID,0,VALID,99.4229,VALID,-0.0849042,VALID,20.4799,VALID,86,VALID,0.0105378,
2007-03-29, 01:26:00,VALID,917.994,VALID,0,VALID,99.5806,VALID,-0.0849042,VALID,20.4869,VALID,86,VALID,0,
2007-03-29, 01:27:00,VALID,917.989,VALID,0,VALID,99.7002,VALID,-0.135847,VALID,20.4799,VALID,86,VALID,0.000762195,
2007-03-29, 01:28:00,VALID,917.972,VALID,0,VALID,99.8121,VALID,-0.0679233,VALID,20.4667,VALID,86,VALID,0.249092,
2007-03-29, 01:29:00,VALID,917.933,VALID,0,VALID,99.9453,VALID,-0.0509425,VALID,20.4599,VALID,86,VALID,0.111607,
2007-03-29, 01:30:00,VALID,917.92,VALID,0,VALID,100,VALID,-0.0679233,VALID,20.4664,VALID,86,VALID,0,
2007-03-29, 01:31:00,VALID,917.914,VALID,0,VALID,100,VALID,-0.101885,VALID,20.4834,VALID,86,VALID,0.0106707,
2007-03-29, 01:32:00,VALID,917.901,VALID,0,VALID,100,VALID,-0.0849042,VALID,20.4664,VALID,86,VALID,0.0234375,
2007-03-29, 01:33:00,VALID,917.893,VALID,0,VALID,100,VALID,-0.101885,VALID,20.4702,VALID,86,VALID,0,
2007-03-29, 01:34:00,VALID,917.893,VALID,0,VALID,100,VALID,-0.0509425,VALID,20.4569,VALID,86,VALID,0,
2007-03-29, 01:35:00,VALID,917.89,VALID,0,VALID,100,VALID,-0.101885,VALID,20.4507,VALID,86,VALID,0,
2007-03-29, 01:36:00,VALID,917.879,VALID,0,VALID,100,VALID,-0.101885,VALID,20.4534,VALID,86,VALID,0.0739462,
2007-03-29, 01:37:00,VALID,917.873,VALID,0,VALID,100,VALID,-0.0679233,VALID,20.4664,VALID,85,VALID,0.137536,
2007-03-29, 01:38:00,VALID,917.847,VALID,0,VALID,100,VALID,-0.0509425,VALID,20.4562,VALID,76,VALID,0.407158,
2007-03-29, 01:39:00,VALID,917.851,VALID,0,VALID,100,VALID,-0.0339617,VALID,20.4537,VALID,54,VALID,0.521723,
2007-03-29, 01:40:00,VALID,917.839,VALID,0,VALID,100,VALID,-0.0849042,VALID,20.4245,VALID,25,VALID,0.581395,
2007-03-29, 01:41:00,VALID,917.827,VALID,0,VALID,100,VALID,-0.0509425,VALID,20.4015,VALID,25,VALID,0.325195,
2007-03-29, 01:42:00,VALID,917.83,VALID,0,VALID,100,VALID,-0.0849042,VALID,20.379,VALID,25,VALID,0.310369,
2007-03-29, 01:43:00,VALID,917.828,VALID,0,VALID,100,VALID,-0.0679233,VALID,20.3498,VALID,25,VALID,0.335771,
2007-03-29, 01:44:00,VALID,917.835,VALID,0,VALID,100,VALID,-0.0509425,VALID,20.3298,VALID,25,VALID,0.442294,
2007-03-29, 01:45:00,VALID,917.819,VALID,0,VALID,100,VALID,-0.0679233,VALID,20.3104,VALID,357,VALID,0.53869,
2007-03-29, 01:46:00,VALID,917.802,VALID,0,VALID,100,VALID,-0.0679233,VALID,20.2914,VALID,353,VALID,0.565799,
2007-03-29, 01:47:00,VALID,917.776,VALID,0,VALID,100,VALID,-0.0679233,VALID,20.3011,VALID,356,VALID,0.494093,
2007-03-29, 01:48:00,VALID,917.755,VALID,0,VALID,100,VALID,-0.0679233,VALID,20.2712,VALID,356,VALID,0.310192,
2007-03-29, 01:49:00,VALID,917.735,VALID,0,VALID,100,VALID,-0.0169808,VALID,20.2485,VALID,1,VALID,0.266741,
2007-03-29, 01:50:00,VALID,917.722,VALID,0,VALID,100,VALID,-0.0509425,VALID,20.223,VALID,5,VALID,0.0970204,
2007-03-29, 01:51:00,VALID,917.704,VALID,0,VALID,100,VALID,-0.0509425,VALID,20.216,VALID,5,VALID,0.0729167,
2007-03-29, 01:52:00,VALID,917.686,VALID,0,VALID,100,VALID,-0.0679233,VALID,20.2392,VALID,5,VALID,0,
2007-03-29, 01:53:00,VALID,917.693,VALID,0,VALID,100,VALID,-0.0849042,VALID,20.2522,VALID,5,VALID,0,
2007-03-29, 01:54:00,VALID,917.681,VALID,0,VALID,100,VALID,-0.0509425,VALID,20.2652,VALID,5,VALID,0,
2007-03-29, 01:55:00,VALID,917.684,VALID,0,VALID,100,VALID,0,VALID,20.2839,VALID,5,VALID,0.0161577,
2007-03-29, 01:56:00,VALID,917.658,VALID,0,VALID,100,VALID,-0.0509425,VALID,20.2712,VALID,5,VALID,0,
2007-03-29, 01:57:00,VALID,917.65,VALID,0,VALID,100,VALID,-0.0169808,VALID,20.2712,VALID,5,VALID,0.0736861,
2007-03-29, 01:58:00,VALID,917.633,VALID,0,VALID,100,VALID,-0.0849042,VALID,20.3009,VALID,5,VALID,0.23971,
2007-03-29, 01:59:00,VALID,917.613,VALID,0,VALID,100,VALID,-0.0679233,VALID,20.2747,VALID,17,VALID,0.581936,
2007-03-29, 02:00:00,VALID,917.589,VALID,0,VALID,100,VALID,-0.0169808,VALID,20.2185,VALID,34,VALID,0.855755,
2007-03-29, 02:01:00,VALID,917.58,VALID,0,VALID,100,VALID,-0.0169808,VALID,20.1741,VALID,42,VALID,1.09914,
2007-03-29, 02:02:00,VALID,917.556,VALID,0,VALID,100,VALID,-0.0679233,VALID,20.1154,VALID,49,VALID,1.22526,
2007-03-29, 02:03:00,VALID,917.542,VALID,0,VALID,100,VALID,-0.0679233,VALID,20.087,VALID,56,VALID,1.02592,
2007-03-29, 02:04:00,VALID,917.522,VALID,0,VALID,100,VALID,-0.0679233,VALID,20.0572,VALID,58,VALID,0.897396,
2007-03-29, 02:05:00,VALID,917.511,VALID,0,VALID,100,VALID,0,VALID,20.021,VALID,60,VALID,0.784375,
2007-03-29, 02:06:00,VALID,917.504,VALID,0,VALID,100,VALID,-0.0849042,VALID,20.0081,VALID,59,VALID,0.447621,
2007-03-29, 02:07:00,VALID,917.483,VALID,0,VALID,100,VALID,-0.0339617,VALID,20.0023,VALID,59,VALID,0.065407,
2007-03-29, 02:08:00,VALID,917.482,VALID,0,VALID,100,VALID,-0.0509425,VALID,19.9951,VALID,45,VALID,0.126758,
2007-03-29, 02:09:00,VALID,917.448,VALID,0,VALID,100,VALID,-0.0169808,VALID,19.9981,VALID,43,VALID,0.054497,
2007-03-29, 02:10:00,VALID,917.409,VALID,0,VALID,100,VALID,-0.0339617,VALID,20.0081,VALID,43,VALID,0.000363372,
2007-03-29, 02:11:00,VALID,917.393,VALID,0,VALID,100,VALID,-0.0339617,VALID,20.0572,VALID,43,VALID,0.275112,
2007-03-29, 02:12:00,VALID,917.356,VALID,0,VALID,100,VALID,-0.0339617,VALID,20.0932,VALID,44,VALID,0.713068,
2007-03-29, 02:13:00,VALID,917.353,VALID,0,VALID,100,VALID,0,VALID,20.0829,VALID,57,VALID,0.796131,
2007-03-29, 02:14:00,VALID,917.332,VALID,0,VALID,100,VALID,-0.0169808,VALID,20.0957,VALID,63,VALID,0.906641,
2007-03-29, 02:15:00,VALID,917.315,VALID,0,VALID,100,VALID,-0.0169808,VALID,20.0984,VALID,64,VALID,0.840588,
2007-03-29, 02:16:00,VALID,917.313,VALID,0,VALID,100,VALID,-0.0339617,VALID,20.0989,VALID,64,VALID,0.585193,
2007-03-29, 02:17:00,VALID,917.317,VALID,0,VALID,100,VALID,-0.0339617,VALID,20.0992,VALID,64,VALID,0.0900298,
2007-03-29, 02:18:00,VALID,917.304,VALID,0,VALID,100,VALID,-0.0339617,VALID,20.0924,VALID,64,VALID,0.188565,
2007-03-29, 02:19:00,VALID,917.294,VALID,0,VALID,100,VALID,-0.0339617,VALID,20.0727,VALID,64,VALID,0.159766,
2007-03-29, 02:20:00,VALID,917.292,VALID,0,VALID,100,VALID,-0.0339617,VALID,20.0854,VALID,64,VALID,0,
2007-03-29, 02:21:00,VALID,917.272,VALID,0,VALID,100,VALID,-0.0509425,VALID,20.0957,VALID,64,VALID,0,
2007-03-29, 02:22:00,VALID,917.255,VALID,0,VALID,100,VALID,0,VALID,20.0822,VALID,64,VALID,0.0394259,
2007-03-29, 02:23:00,VALID,917.255,VALID,0,VALID,100,VALID,-0.0169808,VALID,20.0765,VALID,64,VALID,0.0949929,
2007-03-29, 02:24:00,VALID,917.252,VALID,0,VALID,100,VALID,-0.0339617,VALID,20.0762,VALID,64,VALID,0.133743,
2007-03-29, 02:25:00,VALID,917.253,VALID,0,VALID,100,VALID,-0.0169808,VALID,20.064,VALID,64,VALID,0.119978,
2007-03-29, 02:26:00,VALID,917.258,VALID,0,VALID,100,VALID,-0.0339617,VALID,20.0343,VALID,64,VALID,0.0221657,
2007-03-29, 02:27:00,VALID,917.247,VALID,0,VALID,100,VALID,0,VALID,20.0305,VALID,64,VALID,0.247962,
2007-03-29, 02:28:00,VALID,917.238,VALID,0,VALID,100,VALID,-0.0339617,VALID,20.031,VALID,64,VALID,0.380335,
2007-03-29, 02:29:00,VALID,917.215,VALID,0,VALID,100,VALID,0.0509425,VALID,20.01,VALID,64,VALID,0.202009,
2007-03-29, 02:30:00,VALID,917.214,VALID,0,VALID,100,VALID,0.0679233,VALID,20.0135,VALID,64,VALID,0.518864,
2007-03-29, 02:31:00,VALID,917.193,VALID,0,VALID,100,VALID,0.0849042,VALID,20.0038,VALID,78,VALID,0.660866,
2007-03-29, 02:32:00,VALID,917.183,VALID,0,VALID,100,VALID,0.0849042,VALID,20.01,VALID,81,VALID,0.524858,
2007-03-29, 02:33:00,VALID,917.166,VALID,0,VALID,100,VALID,0.0849042,VALID,20.003,VALID,81,VALID,0.300495,
2007-03-29, 02:34:00,VALID,917.153,VALID,0,VALID,100,VALID,0.0849042,VALID,20.0198,VALID,81,VALID,0.0735394,
2007-03-29, 02:35:00,VALID,917.131,VALID,0,VALID,100,VALID,0.0169808,VALID,20.0233,VALID,81,VALID,0.313565,
2007-03-29, 02:36:00,VALID,917.117,VALID,0,VALID,100,VALID,0.0169808,VALID,20.0003,VALID,81,VALID,0.351753,
2007-03-29, 02:37:00,VALID,917.102,VALID,0,VALID,100,VALID,0,VALID,19.9978,VALID,81,VALID,0.262835,
2007-03-29, 02:38:00,VALID,917.088,VALID,0,VALID,100,VALID,0.0169808,VALID,19.9971,VALID,81,VALID,0.0504092,
2007-03-29, 02:39:00,VALID,917.071,VALID,0,VALID,100,VALID,0.0169808,VALID,19.9841,VALID,81,VALID,0.172408,
2007-03-29, 02:40:00,VALID,917.057,VALID,0,VALID,100,VALID,0.0509425,VALID,19.9878,VALID,81,VALID,0.442264,
2007-03-29, 02:41:00,VALID,917.043,VALID,0,VALID,100,VALID,0.0509425,VALID,19.9581,VALID,87,VALID,0.626143,
2007-03-29, 02:42:00,VALID,917.046,VALID,0,VALID,100,VALID,0,VALID,19.9551,VALID,127,VALID,0.677782,
2007-03-29, 02:43:00,VALID,917.001,VALID,0,VALID,100,VALID,0,VALID,19.9591,VALID,129,VALID,0.843192,
2007-03-29, 02:44:00,VALID,916.974,VALID,0,VALID,100,VALID,-0.0679233,VALID,19.9434,VALID,131,VALID,0.898256,
2007-03-29, 02:45:00,VALID,916.939,VALID,0,VALID,100,VALID,-0.0509425,VALID,19.9339,VALID,132,VALID,1.00295,
2007-03-29, 02:46:00,VALID,916.89,VALID,0,VALID,100,VALID,-0.0509425,VALID,19.9142,VALID,137,VALID,0.903201,
2007-03-29, 02:47:00,VALID,916.868,VALID,0,VALID,100,VALID,-0.0509425,VALID,19.9015,VALID,140,VALID,0.704799,
2007-03-29, 02:48:00,VALID,916.845,VALID,0,VALID,100,VALID,-0.101885,VALID,19.9045,VALID,136,VALID,0.743963,
2007-03-29, 02:49:00,VALID,916.814,VALID,0,VALID,100,VALID,-0.0679233,VALID,19.9012,VALID,147,VALID,0.693638,
2007-03-29, 02:50:00,VALID,916.785,VALID,0,VALID,100,VALID,-0.0679233,VALID,19.898,VALID,131,VALID,0.851563,
2007-03-29, 02:51:00,VALID,916.764,VALID,0,VALID,100,VALID,-0.0509425,VALID,19.9012,VALID,116,VALID,0.926599,
2007-03-29, 02:52:00,VALID,916.757,VALID,0,VALID,100,VALID,-0.101885,VALID,19.9015,VALID,103,VALID,0.782848,
2007-03-29, 02:53:00,VALID,916.733,VALID,0,VALID,100,VALID,-0.0679233,VALID,19.8758,VALID,111,VALID,0.761083,
2007-03-29, 02:54:00,VALID,916.71,VALID,0,VALID,100,VALID,-0.101885,VALID,19.8658,VALID,110,VALID,0.841712,
2007-03-29, 02:55:00,VALID,916.683,VALID,0,VALID,100,VALID,-0.101885,VALID,19.8625,VALID,111,VALID,0.914426,
2007-03-29, 02:56:00,VALID,916.65,VALID,0,VALID,100,VALID,-0.0849042,VALID,19.8728,VALID,116,VALID,1.09263,
2007-03-29, 02:57:00,VALID,916.641,VALID,0,VALID,100,VALID,-0.0849042,VALID,19.859,VALID,125,VALID,1.04542,
2007-03-29, 02:58:00,VALID,916.631,VALID,0,VALID,100,VALID,-0.0679233,VALID,19.8655,VALID,132,VALID,1.01441,
2007-03-29, 02:59:00,VALID,916.621,VALID,0,VALID,100,VALID,0.0339617,VALID,19.8713,VALID,133,VALID,0.91276,
2007-03-29, 03:00:00,VALID,916.607,VALID,0,VALID,100,VALID,0.0339617,VALID,19.8608,VALID,139,VALID,0.841619,
2007-03-29, 03:01:00,VALID,916.589,VALID,0,VALID,100,VALID,0.0169808,VALID,19.861,VALID,144,VALID,1.06765,
2007-03-29, 03:02:00,VALID,916.569,VALID,0,VALID,100,VALID,0.0339617,VALID,19.8708,VALID,142,VALID,1.2314,
2007-03-29, 03:03:00,VALID,916.563,VALID,0,VALID,100,VALID,0.0509425,VALID,19.8805,VALID,136,VALID,1.25249,
2007-03-29, 03:04:00,VALID,916.533,VALID,0,VALID,100,VALID,0.0169808,VALID,19.887,VALID,135,VALID,1.45938,
2007-03-29, 03:05:00,VALID,916.527,VALID,0,VALID,100,VALID,0.0339617,VALID,19.8905,VALID,133,VALID,1.27912,
2007-03-29, 03:06:00,VALID,916.516,VALID,0,VALID,100,VALID,0.0169808,VALID,19.91,VALID,134,VALID,1.1526,
2007-03-29, 03:07:00,VALID,916.497,VALID,0,VALID,100,VALID,0.0679233,VALID,19.9129,VALID,139,VALID,0.954613,
2007-03-29, 03:08:00,VALID,916.48,VALID,0,VALID,100,VALID,0.0509425,VALID,19.9097,VALID,143,VALID,1.11022,
2007-03-29, 03:09:00,VALID,916.453,VALID,0,VALID,100,VALID,0,VALID,19.9199,VALID,140,VALID,1.03343,
2007-03-29, 03:10:00,VALID,916.438,VALID,0,VALID,100,VALID,0.0169808,VALID,19.9292,VALID,146,VALID,1.39807,
2007-03-29, 03:11:00,VALID,916.427,VALID,0,VALID,100,VALID,0.0169808,VALID,19.9389,VALID,148,VALID,1.16406,
2007-03-29, 03:12:00,VALID,916.41,VALID,0,VALID,100,VALID,0.0169808,VALID,19.9292,VALID,153,VALID,0.992001,
2007-03-29, 03:13:00,VALID,916.399,VALID,0,VALID,100,VALID,0.0339617,VALID,19.9462,VALID,149,VALID,1.08505,
2007-03-29, 03:14:00,VALID,916.378,VALID,0,VALID,100,VALID,-0.0509425,VALID,19.9472,VALID,146,VALID,0.830669,
2007-03-29, 03:15:00,VALID,916.359,VALID,0,VALID,100,VALID,-0.101885,VALID,19.9407,VALID,145,VALID,1.17078,
2007-03-29, 03:16:00,VALID,916.349,VALID,0,VALID,100,VALID,-0.0679233,VALID,19.9434,VALID,144,VALID,0.945992,
2007-03-29, 03:17:00,VALID,916.341,VALID,0,VALID,100,VALID,-0.101885,VALID,19.9437,VALID,136,VALID,0.918527,
2007-03-29, 03:18:00,VALID,916.341,VALID,0,VALID,100,VALID,-0.0679233,VALID,19.9507,VALID,145,VALID,1.05959,
2007-03-29, 03:19:00,VALID,916.317,VALID,0,VALID,100,VALID,-0.101885,VALID,19.9437,VALID,148,VALID,0.854911,
2007-03-29, 03:20:00,VALID,916.321,VALID,0,VALID,100,VALID,-0.118866,VALID,19.9307,VALID,141,VALID,0.714844,
2007-03-29, 03:21:00,VALID,916.334,VALID,0,VALID,100,VALID,-0.101885,VALID,19.9312,VALID,151,VALID,0.617001,
2007-03-29, 03:22:00,VALID,916.34,VALID,0,VALID,100,VALID,-0.101885,VALID,19.9177,VALID,138,VALID,0.493278,
2007-03-29, 03:23:00,VALID,916.345,VALID,0,VALID,100,VALID,-0.135847,VALID,19.9309,VALID,143,VALID,0.849201,
2007-03-29, 03:24:00,VALID,916.34,VALID,0,VALID,100,VALID,-0.0849042,VALID,19.9212,VALID,147,VALID,0.861458,
2007-03-29, 03:25:00,VALID,916.35,VALID,0,VALID,100,VALID,-0.118866,VALID,19.9215,VALID,149,VALID,0.708274,
2007-03-29, 03:26:00,VALID,916.347,VALID,0,VALID,100,VALID,-0.118866,VALID,19.9212,VALID,140,VALID,0.699591,
2007-03-29, 03:27:00,VALID,916.344,VALID,0,VALID,100,VALID,-0.0849042,VALID,19.9309,VALID,128,VALID,0.813802,
2007-03-29, 03:28:00,VALID,916.324,VALID,0,VALID,100,VALID,-0.0679233,VALID,19.9075,VALID,118,VALID,0.803779,
2007-03-29, 03:29:00,VALID,916.332,VALID,0,VALID,100,VALID,0.0169808,VALID,19.8967,VALID,103,VALID,0.60462,
2007-03-29, 03:30:00,VALID,916.341,VALID,0,VALID,100,VALID,0.0169808,VALID,19.8932,VALID,102,VALID,0.35032,
2007-03-29, 03:31:00,VALID,916.33,VALID,0,VALID,100,VALID,0.0509425,VALID,19.873,VALID,102,VALID,0.302778,
2007-03-29, 03:32:00,VALID,916.34,VALID,0,VALID,100,VALID,0,VALID,19.8832,VALID,102,VALID,0.41495,
2007-03-29, 03:33:00,VALID,916.348,VALID,0,VALID,100,VALID,0,VALID,19.9037,VALID,102,VALID,0.206499,
2007-03-29, 03:34:00,VALID,916.37,VALID,0,VALID,100,VALID,0,VALID,19.8995,VALID,102,VALID,0.0046875,
2007-03-29, 03:35:00,VALID,916.39,VALID,0,VALID,100,VALID,-0.0169808,VALID,19.9197,VALID,102,VALID,0,
2007-03-29, 03:36:00,VALID,916.392,VALID,0,VALID,100,VALID,0.0339617,VALID,19.9324,VALID,102,VALID,0,
2007-03-29, 03:37:00,VALID,916.392,VALID,0,VALID,100,VALID,0.0509425,VALID,19.9392,VALID,102,VALID,0,
2007-03-29, 03:38:00,VALID,916.411,VALID,0,VALID,100,VALID,-0.0169808,VALID,19.9456,VALID,102,VALID,0,
2007-03-29, 03:39:00,VALID,916.405,VALID,0,VALID,100,VALID,0.0169808,VALID,19.9357,VALID,102,VALID,0,
2007-03-29, 03:40:00,VALID,916.426,VALID,0,VALID,100,VALID,0,VALID,19.9454,VALID,102,VALID,0,